Retour au catalogue

THORAD AGENA D DEB

ActifLEO
NORAD 22533·DEBRIS·🇺🇸 United States

Lancé Apr 8, 1970 depuis Vandenberg Space Force Base

Loading…

Prochains Passages (prochaines 24 heures)

TLE

FraisSource: Space-Track

Époque: Sep 14, 2026, 00:11 UTC

1 22533U 70025QP  26257.00810081  .00000896  00000-0  10330-2 0  9991
2 22533 100.1039  86.0135 0004872  24.9223 128.7704 13.72450548665495

Suivez THORAD AGENA D DEB en temps réel avec AllMySat

Download on the App Store